Wetterdaten: Woche 10.10.11 - 16.10.11 (KW41)
Datum Zeit Temperatur Luftfeuchte Luftdruck Niederschlag Windrichtung Sonnenschein Solar Wind
10.10.2011 00:00 7,3 C 92 % 1022,8 hPa 1,4 l/m SW 0,00 h 0 W/m 8,9 km/h (2 Bft)
10.10.2011 01:00 7,2 C 94 % 1022,2 hPa 2,8 l/m SW 0,00 h 0 W/m 12,9 km/h (3 Bft)
10.10.2011 02:00 7,4 C 96 % 1021,6 hPa 2,2 l/m S-SW 0,00 h 0 W/m 22,7 km/h (4 Bft)
10.10.2011 03:00 7,2 C 96 % 1020,8 hPa 1,4 l/m SW 0,00 h 0 W/m 24,6 km/h (4 Bft)
10.10.2011 04:00 6,7 C 96 % 1020,4 hPa 0,2 l/m SW 0,00 h 0 W/m 19,0 km/h (3 Bft)
10.10.2011 05:00 7,1 C 97 % 1020,2 hPa 0,2 l/m SW 0,00 h 0 W/m 14,9 km/h (3 Bft)
10.10.2011 06:00 7,7 C 98 % 1020,3 hPa 0,4 l/m S-SW 0,00 h 0 W/m 11,4 km/h (2 Bft)
10.10.2011 07:00 8,3 C 98 % 1020,3 hPa 0,2 l/m S-SW 0,00 h 5 W/m 13,4 km/h (3 Bft)
10.10.2011 08:00 8,9 C 98 % 1020,6 hPa 0,8 l/m SW 0,00 h 11 W/m 14,2 km/h (3 Bft)
10.10.2011 09:00 9,2 C 98 % 1021,1 hPa 0,4 l/m SW 0,00 h 33 W/m 8,8 km/h (2 Bft)
10.10.2011 10:00 10,0 C 99 % 1021,7 hPa 0,0 l/m SW 0,00 h 34 W/m 11,2 km/h (2 Bft)
10.10.2011 11:00 10,5 C 99 % 1022,0 hPa 0,0 l/m SW 0,00 h 59 W/m 13,7 km/h (3 Bft)
10.10.2011 12:00 11,1 C 99 % 1021,9 hPa 0,0 l/m SW 0,00 h 59 W/m 16,6 km/h (3 Bft)
10.10.2011 13:00 11,7 C 99 % 1021,6 hPa 0,0 l/m S 0,00 h 88 W/m 14,5 km/h (3 Bft)
10.10.2011 14:00 13,0 C 98 % 1021,2 hPa 0,0 l/m W-SW 0,00 h 70 W/m 22,1 km/h (4 Bft)
10.10.2011 15:00 13,5 C 97 % 1021,0 hPa 0,0 l/m W-SW 0,00 h 88 W/m 24,9 km/h (4 Bft)
10.10.2011 16:00 14,3 C 95 % 1020,9 hPa 0,0 l/m W-SW 0,00 h 94 W/m 25,4 km/h (4 Bft)
10.10.2011 17:00 14,2 C 95 % 1021,0 hPa 0,0 l/m SW 0,00 h 25 W/m 18,6 km/h (3 Bft)
10.10.2011 18:00 14,2 C 95 % 1021,3 hPa 0,0 l/m SW 0,00 h 8 W/m 15,2 km/h (3 Bft)
10.10.2011 19:00 13,7 C 94 % 1021,5 hPa 0,0 l/m SW 0,00 h 0 W/m 15,7 km/h (3 Bft)
10.10.2011 20:00 12,9 C 93 % 1022,0 hPa 0,0 l/m SW 0,00 h 0 W/m 9,6 km/h (2 Bft)
10.10.2011 21:00 12,2 C 94 % 1022,4 hPa 0,0 l/m SW 0,00 h 0 W/m 6,8 km/h (2 Bft)
10.10.2011 22:00 11,9 C 95 % 1022,5 hPa 0,0 l/m W-SW 0,00 h 0 W/m 10,2 km/h (2 Bft)
10.10.2011 23:00 11,3 C 94 % 1022,5 hPa 0,0 l/m N 0,00 h 0 W/m 2,3 km/h (1 Bft)
11.10.2011 00:00 10,8 C 95 % 1022,8 hPa 0,0 l/m SW 0,00 h 0 W/m 2,4 km/h (1 Bft)
11.10.2011 01:00 11,4 C 97 % 1022,6 hPa 0,0 l/m W 0,00 h 0 W/m 9,9 km/h (2 Bft)
11.10.2011 02:00 11,9 C 97 % 1022,3 hPa 0,0 l/m SW 0,00 h 0 W/m 12,1 km/h (2 Bft)
11.10.2011 03:00 11,4 C 96 % 1022,1 hPa 0,0 l/m S 0,00 h 0 W/m 4,7 km/h (1 Bft)
11.10.2011 04:00 11,6 C 97 % 1021,9 hPa 0,0 l/m SW 0,00 h 0 W/m 14,0 km/h (3 Bft)
11.10.2011 05:00 12,0 C 95 % 1022,0 hPa 0,0 l/m SW 0,00 h 0 W/m 16,4 km/h (3 Bft)
11.10.2011 06:00 11,8 C 93 % 1022,3 hPa 0,0 l/m SW 0,00 h 0 W/m 10,1 km/h (2 Bft)
11.10.2011 07:00 11,3 C 93 % 1022,3 hPa 0,0 l/m SW 0,00 h 10 W/m 9,4 km/h (2 Bft)
11.10.2011 08:00 11,0 C 95 % 1022,4 hPa 0,0 l/m S 0,00 h 40 W/m 7,4 km/h (2 Bft)
11.10.2011 09:00 11,8 C 94 % 1022,6 hPa 0,0 l/m S-SW 0,00 h 81 W/m 8,8 km/h (2 Bft)
11.10.2011 10:00 13,5 C 89 % 1022,6 hPa 0,0 l/m SW 0,58 h 312 W/m 15,6 km/h (3 Bft)
11.10.2011 11:00 15,0 C 84 % 1022,2 hPa 0,0 l/m S-SW 1,00 h 413 W/m 15,3 km/h (3 Bft)
11.10.2011 12:00 16,4 C 80 % 1021,4 hPa 0,0 l/m SW 1,00 h 555 W/m 20,8 km/h (4 Bft)
11.10.2011 13:00 17,6 C 76 % 1020,7 hPa 0,0 l/m W-SW 1,00 h 577 W/m 20,5 km/h (4 Bft)
11.10.2011 14:00 18,3 C 73 % 1020,0 hPa 0,0 l/m W-SW 1,00 h 535 W/m 22,9 km/h (4 Bft)
11.10.2011 15:00 18,6 C 68 % 1019,3 hPa 0,0 l/m W-SW 1,00 h 447 W/m 22,9 km/h (4 Bft)
11.10.2011 16:00 18,5 C 67 % 1019,1 hPa 0,0 l/m W-SW 1,00 h 315 W/m 24,0 km/h (4 Bft)
11.10.2011 17:00 17,8 C 71 % 1018,4 hPa 0,0 l/m W-SW 1,02 h 172 W/m 16,0 km/h (3 Bft)
11.10.2011 18:00 16,6 C 75 % 1018,6 hPa 0,0 l/m W-SW 0,08 h 16 W/m 11,0 km/h (2 Bft)
11.10.2011 19:00 15,3 C 80 % 1019,0 hPa 0,0 l/m W 0,00 h 0 W/m 9,4 km/h (2 Bft)
11.10.2011 20:00 14,2 C 84 % 1019,5 hPa 0,0 l/m W 0,00 h 0 W/m 2,1 km/h (1 Bft)
11.10.2011 21:00 12,7 C 87 % 1020,2 hPa 0,0 l/m W-NW 0,00 h 0 W/m 5,5 km/h (1 Bft)
11.10.2011 22:00 12,3 C 89 % 1020,5 hPa 0,0 l/m W-NW 0,00 h 0 W/m 12,5 km/h (3 Bft)
11.10.2011 23:00 11,9 C 89 % 1021,1 hPa 0,0 l/m W 0,00 h 0 W/m 8,1 km/h (2 Bft)
12.10.2011 00:00 11,4 C 91 % 1021,4 hPa 0,0 l/m SW 0,00 h 0 W/m 7,4 km/h (2 Bft)
12.10.2011 01:00 11,2 C 93 % 1021,5 hPa 0,0 l/m SW 0,00 h 0 W/m 8,6 km/h (2 Bft)
12.10.2011 02:00 10,8 C 94 % 1021,4 hPa 0,0 l/m SW 0,00 h 0 W/m 7,4 km/h (2 Bft)
12.10.2011 03:00 10,4 C 94 % 1021,2 hPa 0,0 l/m SW 0,00 h 0 W/m 7,5 km/h (2 Bft)
12.10.2011 04:00 10,3 C 95 % 1020,7 hPa 0,0 l/m SW 0,00 h 0 W/m 10,6 km/h (2 Bft)
12.10.2011 05:00 10,3 C 95 % 1020,5 hPa 0,0 l/m SW 0,00 h 0 W/m 11,7 km/h (2 Bft)
12.10.2011 06:00 10,3 C 95 % 1020,6 hPa 0,0 l/m SW 0,00 h 0 W/m 9,0 km/h (2 Bft)
12.10.2011 07:00 10,2 C 94 % 1020,1 hPa 0,0 l/m SW 0,00 h 6 W/m 10,4 km/h (2 Bft)
12.10.2011 08:00 10,3 C 94 % 1020,3 hPa 0,0 l/m SW 0,00 h 21 W/m 9,5 km/h (2 Bft)
12.10.2011 09:00 10,9 C 91 % 1020,9 hPa 0,0 l/m W-SW 0,00 h 50 W/m 14,5 km/h (3 Bft)
12.10.2011 10:00 11,7 C 88 % 1021,0 hPa 0,0 l/m W-SW 0,00 h 68 W/m 13,2 km/h (3 Bft)
12.10.2011 11:00 12,1 C 86 % 1020,9 hPa 0,0 l/m W-SW 0,00 h 65 W/m 12,8 km/h (3 Bft)
12.10.2011 12:00 12,3 C 86 % 1020,9 hPa 0,0 l/m W-SW 0,00 h 54 W/m 9,9 km/h (2 Bft)
12.10.2011 13:00 12,5 C 85 % 1020,7 hPa 0,0 l/m W-SW 0,00 h 58 W/m 10,1 km/h (2 Bft)
12.10.2011 14:00 12,8 C 84 % 1020,2 hPa 0,0 l/m W-SW 0,00 h 71 W/m 10,2 km/h (2 Bft)
12.10.2011 15:00 13,3 C 82 % 1019,8 hPa 0,0 l/m W 0,00 h 100 W/m 8,8 km/h (2 Bft)
12.10.2011 16:00 13,6 C 79 % 1019,6 hPa 0,0 l/m W 0,00 h 107 W/m 9,9 km/h (2 Bft)
12.10.2011 17:00 13,4 C 79 % 1019,6 hPa 0,0 l/m W 0,00 h 34 W/m 7,1 km/h (2 Bft)
12.10.2011 18:00 12,9 C 79 % 1019,8 hPa 0,0 l/m W 0,00 h 9 W/m 5,7 km/h (1 Bft)
12.10.2011 19:00 12,3 C 82 % 1020,2 hPa 0,0 l/m W 0,00 h 0 W/m 6,3 km/h (2 Bft)
12.10.2011 20:00 12,0 C 87 % 1020,6 hPa 0,0 l/m W-SW 0,00 h 0 W/m 8,4 km/h (2 Bft)
12.10.2011 21:00 11,8 C 88 % 1020,9 hPa 0,0 l/m W 0,00 h 0 W/m 11,6 km/h (2 Bft)
12.10.2011 22:00 11,0 C 92 % 1021,2 hPa 0,2 l/m W 0,00 h 0 W/m 12,5 km/h (3 Bft)
12.10.2011 23:00 10,7 C 94 % 1021,2 hPa 0,2 l/m W 0,00 h 0 W/m 12,1 km/h (2 Bft)
13.10.2011 00:00 10,6 C 94 % 1021,1 hPa 0,0 l/m W 0,00 h 0 W/m 10,5 km/h (2 Bft)
13.10.2011 01:00 10,5 C 94 % 1021,2 hPa 0,0 l/m W-SW 0,00 h 0 W/m 8,6 km/h (2 Bft)
13.10.2011 02:00 10,5 C 95 % 1021,2 hPa 0,0 l/m W 0,00 h 0 W/m 8,9 km/h (2 Bft)
13.10.2011 03:00 10,4 C 95 % 1021,2 hPa 0,0 l/m W-SW 0,00 h 0 W/m 8,6 km/h (2 Bft)
13.10.2011 04:00 10,4 C 95 % 1021,3 hPa 0,2 l/m W-SW 0,00 h 0 W/m 9,0 km/h (2 Bft)
13.10.2011 05:00 10,4 C 95 % 1021,6 hPa 0,2 l/m W 0,00 h 0 W/m 10,1 km/h (2 Bft)
13.10.2011 06:00 10,3 C 96 % 1021,8 hPa 0,0 l/m W-SW 0,00 h 0 W/m 6,7 km/h (2 Bft)
13.10.2011 07:00 10,3 C 96 % 1022,0 hPa 0,2 l/m W-SW 0,00 h 5 W/m 8,6 km/h (2 Bft)
13.10.2011 08:00 10,3 C 97 % 1022,5 hPa 0,0 l/m W-SW 0,00 h 11 W/m 6,8 km/h (2 Bft)
13.10.2011 09:00 10,5 C 97 % 1023,3 hPa 0,2 l/m W-SW 0,00 h 32 W/m 4,0 km/h (1 Bft)
13.10.2011 10:00 11,3 C 96 % 1023,8 hPa 0,0 l/m W-NW 0,00 h 108 W/m 5,1 km/h (1 Bft)
13.10.2011 11:00 12,4 C 92 % 1024,0 hPa 0,0 l/m W-NW 0,00 h 119 W/m 8,2 km/h (2 Bft)
13.10.2011 12:00 10,7 C 93 % 1024,7 hPa 0,6 l/m NO 0,00 h 101 W/m 13,0 km/h (3 Bft)
13.10.2011 13:00 10,3 C 95 % 1025,2 hPa 0,0 l/m O-NO 0,00 h 100 W/m 11,6 km/h (2 Bft)
13.10.2011 14:00 10,0 C 94 % 1025,3 hPa 0,0 l/m NO 0,00 h 62 W/m 13,3 km/h (3 Bft)
13.10.2011 15:00 9,6 C 94 % 1025,6 hPa 0,0 l/m O-NO 0,00 h 50 W/m 12,1 km/h (2 Bft)
13.10.2011 16:00 9,5 C 92 % 1025,8 hPa 0,0 l/m O-NO 0,00 h 28 W/m 11,7 km/h (2 Bft)
13.10.2011 17:00 9,3 C 92 % 1026,2 hPa 0,0 l/m NO 0,00 h 11 W/m 7,5 km/h (2 Bft)
13.10.2011 18:00 9,2 C 92 % 1026,5 hPa 0,0 l/m O-NO 0,00 h 5 W/m 9,1 km/h (2 Bft)
13.10.2011 19:00 9,1 C 92 % 1026,9 hPa 0,0 l/m O-NO 0,00 h 0 W/m 8,0 km/h (2 Bft)
13.10.2011 20:00 8,7 C 91 % 1027,1 hPa 0,0 l/m O-NO 0,00 h 0 W/m 3,7 km/h (1 Bft)
13.10.2011 21:00 7,8 C 92 % 1027,6 hPa 0,0 l/m O-NO 0,00 h 0 W/m 4,9 km/h (1 Bft)
13.10.2011 22:00 7,3 C 94 % 1028,1 hPa 0,0 l/m O-NO 0,00 h 0 W/m 6,7 km/h (2 Bft)
13.10.2011 23:00 7,5 C 94 % 1028,3 hPa 0,0 l/m NO 0,00 h 0 W/m 9,8 km/h (2 Bft)
14.10.2011 00:00 7,6 C 94 % 1028,0 hPa 0,0 l/m O-NO 0,00 h 0 W/m 8,3 km/h (2 Bft)
14.10.2011 01:00 6,8 C 92 % 1027,6 hPa 0,0 l/m O-NO 0,00 h 0 W/m 5,7 km/h (1 Bft)
14.10.2011 02:00 5,8 C 91 % 1027,4 hPa 0,0 l/m NO 0,00 h 0 W/m 6,1 km/h (2 Bft)
14.10.2011 03:00 4,8 C 92 % 1027,2 hPa 0,0 l/m NO 0,00 h 0 W/m 5,2 km/h (1 Bft)
14.10.2011 04:00 4,7 C 93 % 1027,2 hPa 0,0 l/m O-NO 0,00 h 0 W/m 9,0 km/h (2 Bft)
14.10.2011 05:00 5,0 C 90 % 1027,3 hPa 0,0 l/m O-NO 0,00 h 0 W/m 10,2 km/h (2 Bft)
14.10.2011 06:00 4,8 C 90 % 1027,6 hPa 0,0 l/m O-NO 0,00 h 0 W/m 10,8 km/h (2 Bft)
14.10.2011 07:00 4,6 C 88 % 1027,9 hPa 0,0 l/m O-NO 0,00 h 8 W/m 11,4 km/h (2 Bft)
14.10.2011 08:00 4,0 C 89 % 1028,6 hPa 0,0 l/m NO 0,08 h 57 W/m 12,1 km/h (2 Bft)
14.10.2011 09:00 4,4 C 90 % 1028,7 hPa 0,0 l/m O-NO 1,00 h 215 W/m 9,8 km/h (2 Bft)
14.10.2011 10:00 6,7 C 84 % 1029,2 hPa 0,0 l/m O-NO 1,00 h 371 W/m 14,1 km/h (3 Bft)
14.10.2011 11:00 8,6 C 70 % 1029,4 hPa 0,0 l/m O 1,00 h 495 W/m 22,9 km/h (4 Bft)
14.10.2011 12:00 9,6 C 65 % 1029,5 hPa 0,0 l/m O-NO 1,00 h 567 W/m 24,0 km/h (4 Bft)
14.10.2011 13:00 10,7 C 60 % 1029,0 hPa 0,0 l/m O 1,00 h 578 W/m 24,4 km/h (4 Bft)
14.10.2011 14:00 11,4 C 57 % 1028,8 hPa 0,0 l/m O-NO 1,00 h 535 W/m 23,3 km/h (4 Bft)
14.10.2011 15:00 11,7 C 56 % 1028,5 hPa 0,0 l/m O-NO 1,00 h 443 W/m 21,6 km/h (4 Bft)
14.10.2011 16:00 11,3 C 56 % 1028,4 hPa 0,0 l/m O 1,00 h 316 W/m 21,6 km/h (4 Bft)
14.10.2011 17:00 10,5 C 59 % 1028,3 hPa 0,0 l/m O 1,00 h 140 W/m 18,4 km/h (3 Bft)
14.10.2011 18:00 9,5 C 66 % 1028,5 hPa 0,0 l/m O-NO 0,08 h 13 W/m 11,7 km/h (2 Bft)
14.10.2011 19:00 8,0 C 72 % 1029,0 hPa 0,0 l/m O-NO 0,00 h 0 W/m 9,5 km/h (2 Bft)
14.10.2011 20:00 7,0 C 75 % 1029,0 hPa 0,0 l/m O-NO 0,00 h 0 W/m 5,7 km/h (1 Bft)
14.10.2011 21:00 6,2 C 78 % 1029,0 hPa 0,0 l/m NO 0,00 h 0 W/m 8,6 km/h (2 Bft)
14.10.2011 22:00 5,4 C 82 % 1029,1 hPa 0,0 l/m O-NO 0,00 h 0 W/m 8,2 km/h (2 Bft)
14.10.2011 23:00 4,8 C 84 % 1029,1 hPa 0,0 l/m O-NO 0,00 h 0 W/m 9,9 km/h (2 Bft)
15.10.2011 00:00 4,3 C 85 % 1028,5 hPa 0,0 l/m NO 0,00 h 0 W/m 9,7 km/h (2 Bft)
15.10.2011 01:00 3,5 C 87 % 1028,1 hPa 0,0 l/m N-NO 0,00 h 0 W/m 10,3 km/h (2 Bft)
15.10.2011 02:00 2,7 C 89 % 1027,9 hPa 0,0 l/m N-NO 0,00 h 0 W/m 12,4 km/h (3 Bft)
15.10.2011 03:00 2,0 C 90 % 1027,7 hPa 0,0 l/m NO 0,00 h 0 W/m 9,9 km/h (2 Bft)
15.10.2011 04:00 1,4 C 91 % 1027,3 hPa 0,0 l/m NO 0,00 h 0 W/m 12,8 km/h (3 Bft)
15.10.2011 05:00 1,0 C 92 % 1027,3 hPa 0,0 l/m N-NO 0,00 h 0 W/m 10,1 km/h (2 Bft)
15.10.2011 06:00 0,4 C 92 % 1027,3 hPa 0,0 l/m N-NO 0,00 h 0 W/m 8,0 km/h (2 Bft)
15.10.2011 07:00 0,4 C 93 % 1027,6 hPa 0,0 l/m NO 0,00 h 6 W/m 10,1 km/h (2 Bft)
15.10.2011 08:00 0,7 C 93 % 1028,1 hPa 0,0 l/m NO 0,00 h 19 W/m 8,6 km/h (2 Bft)
15.10.2011 09:00 1,1 C 92 % 1028,6 hPa 0,0 l/m O-NO 0,00 h 67 W/m 12,9 km/h (3 Bft)
15.10.2011 10:00 1,9 C 90 % 1028,6 hPa 0,0 l/m O-SO 0,00 h 121 W/m 9,8 km/h (2 Bft)
15.10.2011 11:00 2,6 C 89 % 1028,6 hPa 0,0 l/m O 0,00 h 130 W/m 7,9 km/h (2 Bft)
15.10.2011 12:00 4,0 C 86 % 1028,6 hPa 0,0 l/m O-NO 0,08 h 236 W/m 5,7 km/h (1 Bft)
15.10.2011 13:00 5,7 C 81 % 1028,2 hPa 0,0 l/m O 0,83 h 473 W/m 6,1 km/h (2 Bft)
15.10.2011 14:00 8,0 C 73 % 1027,4 hPa 0,0 l/m O-SO 1,00 h 529 W/m 9,1 km/h (2 Bft)
15.10.2011 15:00 9,3 C 67 % 1026,9 hPa 0,0 l/m O-NO 1,00 h 438 W/m 11,7 km/h (2 Bft)
15.10.2011 16:00 9,8 C 63 % 1026,7 hPa 0,0 l/m O 1,00 h 307 W/m 15,4 km/h (3 Bft)
15.10.2011 17:00 9,7 C 66 % 1026,5 hPa 0,0 l/m O 1,00 h 130 W/m 11,9 km/h (2 Bft)
15.10.2011 18:00 8,9 C 67 % 1026,6 hPa 0,0 l/m O-NO 0,00 h 11 W/m 5,3 km/h (1 Bft)
15.10.2011 19:00 7,3 C 70 % 1026,8 hPa 0,0 l/m N 0,00 h 0 W/m 2,5 km/h (1 Bft)
15.10.2011 20:00 5,4 C 75 % 1026,9 hPa 0,0 l/m N 0,00 h 0 W/m 1,5 km/h (1 Bft)
15.10.2011 21:00 4,0 C 80 % 1026,6 hPa 0,0 l/m N 0,00 h 0 W/m 1,3 km/h (1 Bft)
15.10.2011 22:00 3,1 C 83 % 1026,7 hPa 0,0 l/m N 0,00 h 0 W/m 1,2 km/h (1 Bft)
15.10.2011 23:00 2,3 C 85 % 1026,6 hPa 0,0 l/m N 0,00 h 0 W/m 0,7 km/h (0 Bft)
16.10.2011 00:00 1,5 C 87 % 1026,6 hPa 0,0 l/m N 0,00 h 0 W/m 0,0 km/h (0 Bft)
16.10.2011 01:00 0,9 C 89 % 1026,5 hPa 0,0 l/m N 0,00 h 0 W/m 0,0 km/h (0 Bft)
16.10.2011 02:00 0,3 C 90 % 1026,4 hPa 0,0 l/m N 0,00 h 0 W/m 0,0 km/h (0 Bft)
16.10.2011 03:00 0,1 C 92 % 1026,4 hPa 0,0 l/m N 0,00 h 0 W/m 0,0 km/h (0 Bft)
16.10.2011 04:00 -0,3 C 93 % 1026,3 hPa 0,0 l/m N 0,00 h 0 W/m 0,3 km/h (0 Bft)
16.10.2011 05:00 0,1 C 95 % 1026,3 hPa 0,0 l/m N 0,00 h 0 W/m 0,7 km/h (0 Bft)
16.10.2011 06:00 1,1 C 96 % 1026,6 hPa 0,2 l/m O-NO 0,00 h 0 W/m 1,7 km/h (1 Bft)
16.10.2011 07:00 1,3 C 96 % 1026,5 hPa 0,0 l/m O-NO 0,00 h 5 W/m 2,4 km/h (1 Bft)
16.10.2011 08:00 1,3 C 97 % 1026,9 hPa 0,0 l/m N 0,00 h 14 W/m 1,5 km/h (1 Bft)
16.10.2011 09:00 1,8 C 97 % 1027,2 hPa 0,0 l/m N 0,00 h 40 W/m 1,6 km/h (1 Bft)
16.10.2011 10:00 2,9 C 97 % 1027,3 hPa 0,0 l/m SW 0,00 h 67 W/m 2,8 km/h (1 Bft)
16.10.2011 11:00 3,8 C 97 % 1027,6 hPa 0,0 l/m W 0,00 h 90 W/m 5,1 km/h (1 Bft)
16.10.2011 12:00 4,4 C 97 % 1027,6 hPa 0,0 l/m N 0,00 h 91 W/m 3,2 km/h (1 Bft)
16.10.2011 13:00 5,1 C 96 % 1027,2 hPa 0,0 l/m W 0,00 h 87 W/m 2,4 km/h (1 Bft)
16.10.2011 14:00 5,6 C 95 % 1026,5 hPa 0,0 l/m N 0,00 h 80 W/m 3,1 km/h (1 Bft)
16.10.2011 15:00 6,0 C 95 % 1025,9 hPa 0,0 l/m W-SW 0,00 h 62 W/m 3,2 km/h (1 Bft)
16.10.2011 16:00 6,1 C 95 % 1025,8 hPa 0,0 l/m W-SW 0,00 h 40 W/m 3,3 km/h (1 Bft)
16.10.2011 17:00 6,0 C 95 % 1025,8 hPa 0,0 l/m W-SW 0,00 h 15 W/m 1,7 km/h (1 Bft)
16.10.2011 18:00 5,8 C 95 % 1025,8 hPa 0,0 l/m N 0,00 h 6 W/m 2,0 km/h (1 Bft)
16.10.2011 19:00 5,5 C 96 % 1025,8 hPa 0,0 l/m W-SW 0,00 h 0 W/m 3,6 km/h (1 Bft)
16.10.2011 20:00 5,5 C 97 % 1025,8 hPa 0,0 l/m N 0,00 h 0 W/m 1,3 km/h (1 Bft)
16.10.2011 21:00 5,8 C 97 % 1025,8 hPa 0,0 l/m W-SW 0,00 h 0 W/m 4,3 km/h (1 Bft)
16.10.2011 22:00 5,6 C 97 % 1025,9 hPa 0,0 l/m W-SW 0,00 h 0 W/m 6,3 km/h (2 Bft)
16.10.2011 23:00 5,0 C 97 % 1026,1 hPa 0,0 l/m W-SW 0,00 h 0 W/m 5,7 km/h (1 Bft)
Min-Datum _ 16.10.11 14.10.11 11.10.11 - - - - 10.10.11
_ Min-Zeit 04:50 15:20 17:40 - - - - 21:05
Minimum _ -0,5 C 54 % 1018,2 hPa - - - - 0,0 km/h (0 Bft)
Max-Datum _ 11.10.11 10.10.11 14.10.11 10.10.11 - 11.10.11 15.10.11 10.10.11
_ Max-Zeit 15:50 08:20 12:10 01:45 - 17:56 13:00 02:10
Maximum _ 18,9 C 100 % 1029,6 hPa 2,8 l/m - 0,10 h 691 W/m 33,8 km/h
SW (5 Bft)
Durchschnitt _ 8,7 C 89 % 1024,3 hPa #12,0 l/m W-SW #21:46 h 144 W/m 9,9 km/h (2 Bft)